Regional Weather Roundup
Issued by NWS Boston, MA

Home | Current Version | Previous Version | Text Only | Print | Product List | Glossary On
Versions: 1 2 3 4 5 6 7 8 9 10 11 12 13 14 15 16 17 18 19 20 21 22 23 24 25 26 27 28 29 30 31 32 33 34 35 36 37 38 39 40 41 42 43 44 45 46 47 48 49 50
416
ASUS41 KBOX 262010
RWRBOX

REGIONAL WEATHER ROUNDUP
NATIONAL WEATHER SERVICE TAUNTON MA
400 PM EDT TUE SEP 26 2017

NOTE:  "FAIR" INDICATES FEW OR NO CLOUDS BELOW 12,000 FEET WITH NO
SIGNIFICANT WEATHER AND/OR OBSTRUCTIONS TO VISIBILITY.

MAZALL-262100-
EASTERN MASSACHUSETTS

CITY           SKY/WX    TMP DP  RH WIND       PRES   REMARKS
BOSTON         MOSUNNY   78  69  73 E8        29.98S
BEVERLY        PTSUNNY   80  70  71 SE8       29.97F
LAWRENCE       MOSUNNY   86  69  56 W5        29.99F HX  90
BEDFORD        MOSUNNY   83  64  52 SW3       29.97F
BLUE HILL        N/A     82  65  56 CALM      29.99F
NORWOOD        SUNNY     88  68  51 CALM      29.96F HX  91
MARSHFIELD     PTSUNNY   79  72  78 SE7       29.98F
PLYMOUTH       MOSUNNY   83  66  56 CALM      29.99F
TAUNTON        SUNNY     85  67  54 CALM      29.98S
NEW BEDFORD    MOSUNNY   77  68  73 SE8       29.99S
$$

MAZALL-262100-
CAPE COD AND THE ISLANDS

CITY           SKY/WX    TMP DP  RH WIND       PRES   REMARKS
FALMOUTH       MOSUNNY   77  70  78 S7        30.01
HYANNIS        MOSUNNY   73  68  84 VRB3      29.99S
CHATHAM        MOSUNNY   74  69  85 SW3       30.01F
PROVINCETOWN   PTSUNNY   75  69  81 SE5       30.00S
NANTUCKET      PTSUNNY   67  66  97 S6        30.01F
MARTHAS VNYRD  MOSUNNY   75  69  81 S7        30.00F
$$

MAZALL-262100-
CENTRAL AND WESTERN MASSACHUSETTS

CITY           SKY/WX    TMP DP  RH WIND       PRES   REMARKS
WORCESTER      SUNNY     84  62  47 CALM      30.02F
FITCHBURG      MOSUNNY   87  68  52 SE6       29.99F HX  90
ORANGE         SUNNY     85  69  58 S7        29.99F
SPRINGFIELD    PTSUNNY   88  63  43 CALM      29.97F
WESTFIELD      SUNNY     87  64  46 CALM      29.97F
NORTH ADAMS    MOSUNNY   87  64  46 SW3       29.98S
PITTSFIELD     SUNNY     85  64  49 CALM      30.00F
$$

RIZALL-262100-
RHODE ISLAND

CITY           SKY/WX    TMP DP  RH WIND       PRES   REMARKS
PROVIDENCE     PTSUNNY   81  70  69 S8        30.00S
NEWPORT        MOSUNNY   76  69  79 S7        30.00S
BLOCK ISLAND   MOSUNNY   73  68  84 S6        30.01F
SMITHFIELD     SUNNY     82  69  64 S3        30.00F
WESTERLY       MOSUNNY   76  67  73 S7        30.00F
$$

CTZALL-262100-
CONNECTICUT

CITY           SKY/WX    TMP DP  RH WIND       PRES   REMARKS
BRADLEY INTL   MOSUNNY   88  65  46 S3        29.98F HX  90
HARTFORD       MOSUNNY   86  67  52 S3        29.97S
BRIDGEPORT     MOSUNNY   76  67  73 E5        29.99F
DANBURY        MOSUNNY   86  68  54 E3        30.00S
GROTON         MOSUNNY   74  67  78 SW3       29.99F
NEW HAVEN      MOSUNNY   78  65  63 S5        30.00S
CHESTER        FAIR      82  68  61 S7        30.00
MERIDEN        MOSUNNY   84  68  58 SE6       29.98S
WILLIMANTIC    MOSUNNY   86  66  51 CALM      29.98F
OXFORD         MOSUNNY   84  69  60 SE6       30.01F
$$

MEZ002-015-021-024-NHZ003-005-008-011-012-014-VTZ005-008-262100-
NORTHERN NEW ENGLAND

CITY           SKY/WX    TMP DP  RH WIND       PRES   REMARKS
PORTLAND ME    MOSUNNY   79  64  60 S8        29.97F
BANGOR ME      MOSUNNY   86  69  56 S9        29.95S HX  90
CONCORD NH     MOSUNNY   89  67  47 S6        29.97S HX  92
MANCHESTER NH  PTSUNNY   87  68  52 S7        29.96F HX  90
NASHUA NH      SUNNY     86  70  58 CALM      29.98F HX  90
PORTSMOUTH NH  PTSUNNY   80  69  69 SE7       29.96S
JAFFREY NH     SUNNY     87  66  49 CALM      30.01F
KEENE NH       SUNNY     90  66  45 S5        29.98F HX  92
BURLINGTON VT  MOSUNNY   90  70  51 CALM      29.95F HX  95
MT. WASHINGTON PTSUNNY   63  55  77 W9          N/A
$$

NYZ052-076-262100-
EASTERN NEW YORK

CITY           SKY/WX    TMP DP  RH WIND       PRES   REMARKS
ALBANY         PTSUNNY   90  65  43 CALM      29.97F HX  92
NEW YORK CITY  CLOUDY    79  68  69 NE10      29.98F
$$

ANZALL-262100-
MARINE OBSERVATIONS

STATION/POSITION TIME  TEMP    WIND        PRES    VSBY  WAVE
                       AIR SEA DIR/SP/G                  HT/PER
                 (UTC) (F)     (DEG/KT/KT) (MB)    (MI)  (FT/S)
BOSTON BUOY      1950   67 64  140/  8/  8 1015.0F         2/13
BUZZARDS BAY     1900   68     190/  9/ 10 1016.5S
NANTUCKET SOUND  1950   66 64  180/  2/  6 1015.9F         1/13
MASS BAY-STELLWA 1904   65 63  170/  8/ 10 1014.7F         1/ 6
ISLE OF SHOALS   1900   72     160/ 14/ 14 1015.0F
S OF BLOCK IS    NOT AVBL
$$

......................KEY.........................
  SKY/WX - SKY CONDITION/PRESENT WEATHER
  TMP    - TEMPERATURE IN FAHRENHEIT
  DWPT   - DEWPOINT IN FAHRENHEIT
  RH     - RELATIVE HUMIDITY IN PERCENT
  WIND   - DIRECTION AND SPEED IN MPH
  PRES   - MEAN SEA LEVEL PRESSURE IN INCHES OF HG
  WCI    - WIND CHILL INDEX
  VSB    - VISIBILITY IN MILES
  HX     - HEAT INDEX
  TC     - TEMPERATURE IN CELSIUS
  VRB    - VARIABLE WIND DIRECTION
  N/A    - NOT AVAILABLE




USA.gov is the U.S. government's official web portal to all federal, state and local government web resources and services.